Regional Weather Roundup
Issued by NWS New Orleans/Baton Rouge, LA

Home | Current Version | Previous Version | Text Only | Print | Product List | Glossary On
Versions: 1 2 3 4 5 6 7 8 9 10 11 12 13 14 15 16 17 18 19 20 21 22 23 24 25 26 27 28 29 30 31 32 33 34 35 36 37 38 39 40 41 42 43 44 45 46 47 48 49 50
000
ASUS44 KLIX 021811
RWRLIX
NEW ORLEANS REGIONAL WEATHER ROUNDUP
NATIONAL WEATHER SERVICE NEW ORLEANS LA
100 PM CDT THU JUL 02 2015

NOTE: "FAIR" INDICATES FEW OR NO CLOUDS BELOW 12,000 FEET WITH NO
      SIGNIFICANT WEATHER AND/OR OBSTRUCTIONS TO VISIBILITY.
      SKY/WX - SKY CONDITION AND SIGNIFICANT WEATHER.
      TMP - AIR TEMPERATURE.     DP    - DEWPOINT TEMPERATURE.
      RH  - RELATIVE HUMIDITY.   PRES  - PRESSURE.
      HI  - HEAT INDEX.          WCI   - WIND CHILL INDEX.

*  THESE STATIONS ARE NOT NWS OR FAA STATIONS AND ARE NOT UNDER
   NWS QUALITY CONTROL.

LAZ038-040-048-061>063-065>067-069-021900-
SOUTHEAST LOUISIANA

CITY           SKY/WX    TMP DP  RH WIND       PRES   REMARKS
N.O. AUDUBON     N/A     90  81  74 MISG        N/A  HX 109
6HR MIN TEMP:  78; 6HR MAX TEMP:  90;

N.O. INTL ARPT CLOUDY    87  74  64 VRB3      30.08F HX  95
6HR MIN TEMP:  77; 6HR MAX TEMP:  88;

N.O. LAKEFRONT CLOUDY    91  72  53 S12       30.08F HX  98
6HR MIN TEMP:  80; 6HR MAX TEMP:  91;

N.O. DOWNTOWN*   N/A     90  75  62 SW8       30.09F HX 100
6HR MIN TEMP:  79; 6HR MAX TEMP:  90;

RESERVE*       NOT AVBL
SLIDELL        CLOUDY    87  76  69 SW8       30.08F HX  97
6HR MIN TEMP:  76; 6HR MAX TEMP:  88; 6HR PCP:  0.02;

BATON ROUGE    PTSUNNY   88  74  63 SW9       30.08F HX  96
6HR MIN TEMP:  75; 6HR MAX TEMP:  89;

BOOTHVILLE     CLOUDY    86  77  74 S14       30.10S HX  97
6HR MIN TEMP:  80; 6HR MAX TEMP:  86;

BELLE CHASSE   CLOUDY    86  76  71 S10       30.08F HX  96
6HR MIN TEMP:  75; 6HR MAX TEMP:  86;

BOGALUSA*      NOT AVBL
GALLIANO*      NOT AVBL
NEW ROADS*     NOT AVBL
GONZALES*      NOT AVBL
HAMMOND*       NOT AVBL
HOUMA*         MOSUNNY   90  75  62 S7        30.09F HX 100
PORT FOURCHON* CLEAR     86  75  70 S10       30.10F HX  95

$$

MSZ070-080>082-021900-
SOUTHERN MISSISSIPPI

CITY           SKY/WX    TMP DP  RH WIND       PRES   REMARKS
MCCOMB         PTSUNNY   86  76  71 SW9       30.08F HAZE    HX  96
6HR MIN TEMP:  73; 6HR MAX TEMP:  86;

GULFPORT       PTSUNNY   86  77  74 S8        30.08F HX  97
6HR MIN TEMP:  78; 6HR MAX TEMP:  86; 6HR PCP: TRACE;

BILOXI         CLOUDY    85  76  74 SW12      30.08F HX  95
6HR MIN TEMP:  79; 6HR MAX TEMP:  86;

PASCAGOULA     PTSUNNY   86  76  71 SW10G17   30.09F HX  96
6HR MIN TEMP:  77; 6HR MAX TEMP:  87;

STENNIS ARPT*  PTSUNNY   88  72  58 MISG      30.08F

$$

COASTAL OBSERVATIONS
LAKE AND NEARSHORE STATIONS

STATION/POSITION TIME  TEMP    WIND        PRES    WAVE
                       AIR SEA DIR/SP/G            HT/PER
                 (UTC) (F)     (DEG/KT/KT) (MB)    (FT/S)
PASCAGOULA       1700   84     220/  9/ 12 1019.2
WAVELAND YACHT   1700   84 83  210/  9/ 12 1019.6
GRAND ISLE       1700   85 85  180/  6/ 10 1019.7
SOUTHWEST PASS   1700   85 83  150/  6/ 10 1020.5
NEW CANAL        1700   85 83  220/  5/  7 1018.6
SHELL BEACH      1700   83 83  140/  5/  7 1019.0

OFFSHORE STATIONS

STATION/POSITION TIME  TEMP    WIND        PRES    WAVE
                       AIR SEA DIR/SP/G            HT/PER
                 (UTC) (F)     (DEG/KT/KT) (MB)    (FT/S)
64 S DAUPHIN ISL 1750   83 84  160/ 12/ 14 1018.9    1/ 5

$$



USA.gov is the U.S. government's official web portal to all federal, state and local government web resources and services.